Location: Dzierzno
(50.6159°N, 19.2852°E)
Time: 06:30:21
(UTC+00:00)

Cosmos 2251 Rocket - Pass Details

Date: 18 November 2025
Orbit: 760 x 788 km, 74.0° (Epoch: 10 December)

Event Time Altitude Azimuth Distance (km) Brightness Sun altitude
Rises 15:46:25 0° 168° (SSE) 3,233 6.9 -8.5°
Reaches altitude 10° 15:49:04 10° 157° (SSE) 2,316 6.0 -8.9°
Maximum altitude 15:53:28 28° 100° (E) 1,441 4.5 -9.6°
Drops below altitude 10° 15:57:55 10° 43° (NE) 2,346 5.5 -10.2°
Enters shadow 15:58:10 - 42° (NE) 2,429 5.6 -10.3°
